KUIPER-00041

导读

KUIPER-00041是美国亚马逊“柯伊伯计划”低轨卫星互联网星座的组网卫星,于2025年6月23日发射,属于项目大规模部署阶段的发射任务。 该星座计划发射超3200颗低轨卫星,运行在590-630公里轨道,将为全球提供高速低延迟互联网接入,还可整合亚马逊云服务,服务企业、物联网与国防等多场景,是全球低轨卫星通信竞争的重要节点。

Basic Information
目录编号:
64502
目录名称:
KUIPER-00041
国际标识:
2025-134C
轨道中心:
EARTH
卫星名称:
KUIPER-00041
卫星全名:
KUIPER-00041
卫星状态:
在轨 (已飞行449 天)
发射日期:
2025-06-23 UTC
国别 :
美国 (US)
星等 :
--
This satellite is enrolled in the Space Conjunction Data Service (SCDS) and the current flight risk assessment level is: No High Risk
Orbit Information
数据来源 国际轨道数据 AOE轨道数据
星历时间 2026-09-15T17:00:55+0800
14小时前
查看轨道信息
2026-09-12T23:00:00+0800
3天前
查看轨道信息
半长轴 7007.686km 7007.7km
偏心率 0.0000845 0.0000828
轨道倾角 51.899° 51.899°
近地点辐角 94.549° 108.498°
升交点赤经 126.780° 138.944°
平近点角 265.557° 348.057°
近地点 628.956km 628.982km
远地点 630.142km 630.144km
周期 97.302分钟 97.302分钟
每日圈数 14.799288 14.799246
Detailed Information
使用方式:
暂无
2D Orbit Map
3D Orbit Map
Orbit Altitude Analysis Chart
Orbit Inclination Analysis Chart
Orbit Comprehensive Analysis Chart
View Comprehensive Chart
Miss Distance Evolution Trend with All Objects Subscribe to Flight Safety Assessment
Collision Probability Evolution Trend with All Objects Subscribe to Flight Safety Assessment